Location: Middlebury
(44.0133°N, 73.1813°W)
Time: 17:39:47
(UTC-05:00)

ISS - Pass Details

Date: 09 December 2021
Orbit: 414 x 422 km, 51.6° (Epoch: 16 January)

Event Time Altitude Azimuth Distance (km) Brightness Sun altitude
Rises 17:32:34 0° 290° (WNW) 2,371 0.9 -13.5°
Reaches altitude 10° 17:35:08 10° 270° (W) 1,501 0.3 -13.9°
Maximum altitude 17:37:27 17° 226° (SW) 1,128 -0.7 -14.3°
Drops below altitude 10° 17:39:44 10° 183° (S) 1,491 -0.7 -14.7°
Sets 17:42:18 0° 163° (SSE) 2,347 0.1 -15.2°
